sat.trackr.live / text

‹ back to catalog

STARLINK-6109

NORAD 56094 · 2023-046B

PAYLOAD ACTIVE UNKNOWN

§ Identity

Operator
Country
US
Launch date
2023-03-29
Launch site
AFETR
Launch vehicle
Mass (kg)
RCS (m²)

Purposes: comms

External: N2YO · Heavens-Above · Gunter

§ Orbital elements

Epoch: 2026-05-25T04:35:49.417152Z

Period
94.27 min
Inclination
43.0033°
Eccentricity
0.0001103
Mean motion
15.27577346 rev/d
Perigee alt
482.3 km
Apogee alt
483.8 km
Semi-major
6,861.2 km
B*
2.9110e-5
RAAN
89.3301°
Arg perigee
265.3143°
Mean anomaly
94.7582°
Rev number
17,373

§ Raw data

STARLINK-61091 56094U 23046B   26145.19154418  .00000539  00000+0  29110-4 0  99932 56094  43.0033  89.3301 0001103 265.3143  94.7582 15.27577346173735

JSON: /api/v1/satellites/56094 · /tle

For live sub-satellite position, see the globe view (requires WebGL).

§ Visibility from observer

Set your observer location to see the next 7 days of passes ≥ 10°. The values pass through the URL so the page stays shareable.

No JS? Fill the form by hand. The geolocation button needs JavaScript.